Regional Weather Roundup
Issued by NWS

Home | Current Version | Previous Version | Graphics & Text | Print | Product List | Glossary On
Versions: 1 2 3 4 5 6 7 8 9 10 11 12 13 14 15 16 17 18 19 20 21 22 23 24 25 26 27 28 29 30 31 32 33 34 35 36 37 38 39 40 41 42 43 44 45 46 47 48 49 50
000
ASUS43 KLMK 191910
RWRKY
KENTUCKY REGIONAL WEATHER ROUNDUP
NATIONAL WEATHER SERVICE LOUISVILLE KY
300 PM EDT TUE SEP 19 2017

NOTE "FAIR" INDICATES FEW OR NO CLOUDS BELOW 12,000 FEET
WITH NO SIGNIFICANT WEATHER AND/OR OBSTRUCTIONS TO VISIBILITY.

KYZ001>023-026-027-061>063-070>075-192000-
WESTERN AND SOUTH CENTRAL KENTUCKY

CITY           SKY/WX    TMP DP  RH WIND       PRES   REMARKS
PADUCAH        MOSUNNY   86  69  56 CALM      29.91F HX  90
HENDERSON      MOSUNNY   83  71  67 NW7       29.93F
OWENSBORO      PTSUNNY   81  70  69 SW6       29.93F
HOPKINSVILLE   MOSUNNY   82  71  69 CALM      29.93F
BOWLING GREEN  SUNNY     80  71  74 MISG      29.95F
GLASGOW        MOSUNNY   79  68  68 S7        29.97F
$$

KYZ024-025-028>034-038-045-046-053-192000-
NORTH CENTRAL KENTUCKY

CITY           SKY/WX    TMP DP  RH WIND       PRES   REMARKS
LOUISVILLE/SDF CLOUDY    76  67  73 SW6       29.95F
LOUISVILLE/LOU PTSUNNY   75  69  81 SE5       29.96F
FORT KNOX      CLOUDY    75  68  78 SE5       29.95F
$$

KYZ035>037-039>044-047>052-055>060-089>105-192000-
NORTHEAST KENTUCKY

CITY           SKY/WX    TMP DP  RH WIND       PRES   REMARKS
LEXINGTON      CLOUDY    72  67  84 S3        29.98S
COVINGTON      PTSUNNY   75  67  76 E5        29.97F
FRANKFORT      PTSUNNY   73  67  81 CALM      29.97F
$$

KYZ054-064>069-076>088-106>120-192000-
SOUTHEAST KENTUCKY

CITY           SKY/WX    TMP DP  RH WIND       PRES   REMARKS
JACKSON        TSTM      68  65  90 W3        30.02S FOG
LONDON         MOSUNNY   83  62  49 CALM      29.97F
SOMERSET       CLOUDY    77  64  65 NW8       30.00S
MIDDLESBORO    MOSUNNY   82  64  54 CALM      30.00F
MONTICELLO     CLOUDY    75  70  84 N15       30.01S
$$





USA.gov is the U.S. government's official web portal to all federal, state and local government web resources and services.